Carlos Campos

Recruteur - San Martín
22 Févr 2028
Mardi
Processus

Personnalité

Adaptabilité (2) Ambition (15) Controverse (14) Loyauté (7) Pression (2) Professionnalisme (5) Sportivité (16) Tempérament (6)

Profil

Style d'entraînement Démocratique
Diplôme National B
Détermination 1
Gestion des joueurs 3
Motivation 1
Discipline 7
Satisfaction professionnelle
100%
Fatigue
0%
Rôle Recruteur
Salaire 26.1K p/s
Contrat 14.03.2030

Performance

Comportement Bon
Efficacité de l'entraînement
20%
Développement des joueurs
15%
Prévention des blessures
25%
Mise en place tactique
25%

Événements récents

Anniversaire 7j
A participé à une réunion de recrutement 14j
A participé à une réunion de recrutement 21j
A participé à une réunion de recrutement 28j
A participé à une réunion de recrutement 35j
En formation continue 35j
En formation continue 35j
En formation continue 35j

Suivi en cours

73
Joueur Club Statut Capacité Confiance Observé Dernière observation Dernier vote
Lucas Varaldo Central Córdoba SdE Actif 104 / 106 40% 1 29.11.2026 -
Esteven Salguero Patriotas Actif 89 / 105 40% 3 28.11.2026 -
Thomas Ortega Quilmes Actif 116 / 115 40% 1 28.11.2026 -
Pedro Souto Temperley Actif 117 / 103 40% 1 26.11.2026 -
Juan Manuel Jorge Defensor Sporting Actif 101 / 99 40% 1 26.11.2026 -
Jesús Rivas Pumas UNAM Actif 111 / 107 40% 1 22.11.2026 -
Aldahir Pérez Tijuana Actif 125 / 132 40% 1 21.11.2026 -
Guillermo Enrique Huracán Actif 120 / 119 40% 1 20.11.2026 -
Mateo Seoane Gimnasia La Plata Actif 106 / 133 40% 1 20.11.2026 -
Agustín Módica Gimnasia y Esgrima Actif 122 / 126 40% 5 19.11.2026 -
Lautaro Gordillo Colegiales Actif 121 / 117 40% 1 19.11.2026 -
Cristian Núñez Huracán Actif 118 / 126 40% 2 16.11.2026 -
Santiago Sala Güemes Actif 107 / 126 40% 2 16.11.2026 -
Jorge Espejo Universidad de Concepcion Actif 115 / 108 40% 3 14.11.2026 -
Juan Perdomo Deportivo La Guaira Actif 96 / 95 40% 1 14.11.2026 -
Javier Mena Deportivo Pereira Actif 109 / 104 40% 1 12.11.2026 -
Abel Bustos Racing Actif 103 / 111 40% 1 12.11.2026 -
Siro Rosané Estudiantes Actif 116 / 131 40% 1 11.11.2026 -
Agustín Benítez Defensores Actif 101 / 120 40% 1 10.11.2026 -
Antonio Napolitano Agropecuario Argentino Actif 104 / 108 40% 1 10.11.2026 -
Juan Yangali San Telmo Actif 115 / 110 40% 1 09.11.2026 -
Iván Moreno Leon Actif 135 / 119 40% 1 08.11.2026 -
Diego Valencia Universidad Catolica Actif 104 / 114 40% 1 04.11.2026 -
Bruno Damiani Philadelphia Union Actif 113 / 123 40% 1 03.11.2026 -
Agustín Gallo Tristán Suárez Actif 106 / 104 40% 1 02.11.2026 -
Elías Ayala Madryn Actif 115 / 100 40% 2 28.10.2026 -
Marco Miori Alvarado Actif 106 / 107 40% 1 28.10.2026 -
Matías Machado Racing Actif 126 / 119 40% 1 25.10.2026 -
Lucas Viana Progreso Actif 89 / 97 40% 1 24.10.2026 -
Yuber Quiñónes Deportivo Pereira Actif 104 / 122 40% 1 24.10.2026 -
Kevin Isa Luna Central Norte Actif 111 / 102 40% 1 21.10.2026 -
Javier Martínez Almirante Brown Actif 123 / 105 40% 1 21.10.2026 -
Gastón Verón Argentinos Juniors Actif 114 / 132 40% 2 20.10.2026 -
Ariel Castellano Alvarado Actif 110 / 89 40% 1 18.10.2026 -
Cristian Ramirez Llaneros Actif 95 / 104 40% 1 18.10.2026 -
Juan Mendoza Güemes Actif 102 / 115 40% 1 18.10.2026 -
Kevin González Trujillanos Actif 114 / 111 40% 1 12.10.2026 -
Brahian Cuello Unión de Santa Fe Actif 117 / 124 40% 1 12.10.2026 -
Jefferson Cáceres Melgar Actif 113 / 109 40% 1 10.10.2026 -
Facundo Waller Huracán Actif 116 / 124 40% 1 09.10.2026 -
Víctor Barrionuevo Once Caldas Actif 103 / 90 40% 1 08.10.2026 -
Francisco Ginella Albion Actif 97 / 114 40% 1 06.10.2026 -
Kevin Quevedo Universitario Actif 102 / 109 40% 1 06.10.2026 -
Juan Salas Patronato Actif 119 / 125 40% 1 05.10.2026 -
Gianluca Pugliese Güemes Actif 100 / 99 40% 1 04.10.2026 -
Augusto Berrondo Tristán Suárez Actif 116 / 107 40% 2 03.10.2026 -
Matías Samaniego Talleres Actif 91 / 110 40% 1 02.10.2026 -
Juan Francisco Rossel Universidad Catolica Actif 103 / 96 40% 1 29.09.2026 -
Franco Troyansky Audax Italiano Actif 118 / 116 40% 1 29.09.2026 -
José Rivas Gamboa Trujillanos Actif 96 / 100 40% 1 25.09.2026 -
Mauricio Márquez Caracas Actif 94 / 108 40% 1 11.09.2026 -
Mariano Nichele Cerro Actif 92 / 96 40% 1 11.09.2026 -
Maicol Ferreira Danubio Actif 112 / 115 40% 1 07.09.2026 -
Agustín Bianciotti Metropolitanos Actif 92 / 92 40% 2 04.09.2026 -
Emiliano Mozzone Deportivo Maldonado Actif 97 / 99 40% 2 27.08.2026 -
Nahuel Acosta Progreso Actif 84 / 93 40% 3 25.08.2026 -
Mauro Martín Progreso Actif 100 / 93 40% 1 24.08.2026 -
Bruno Scorza La Luz Actif 85 / 104 40% 1 24.08.2026 -
Diego Castillo Real Cartagena Actif 108 / 98 40% 1 21.08.2026 -
Ignacio Yepez Cerrito Actif 124 / 97 40% 1 21.08.2026 -
Jonathan Vega Dorados Actif 76 / 90 40% 1 19.08.2026 -
Róyner Benítez Aguilas Doradas Actif 109 / 117 40% 1 18.08.2026 -
Rodrigo Muníz Uruguay Montevideo Actif 103 / 95 40% 1 17.08.2026 -
José Juan Macías Pumas UNAM Actif 116 / 127 40% 1 17.08.2026 -
Santiago Guzmán Wanderers Actif 98 / 115 40% 1 16.08.2026 -
Braian Vargas Rentistas Actif 77 / 92 40% 1 15.08.2026 -
Manuel Ospina Cortulua Actif 130 / 112 40% 1 13.08.2026 -
Juan Peñaloza Independiente Medellin Actif 100 / 108 40% 1 12.08.2026 -
Piero Magallanes Sport Huancayo Actif 100 / 107 40% 1 12.08.2026 -
Manuel Núñez Tacuarembo Actif 94 / 93 40% 1 04.08.2026 -
Santiago Ramírez Deportivo Maldonado Actif 93 / 97 40% 1 04.08.2026 -
Oscar Cáceres Sportivo Luqueno Actif 76 / 92 40% 1 03.08.2026 -
Ozziel Herrera Tigres Actif 111 / 146 40% 1 01.08.2026 -